Погода в Осиновской

Россия / Тюменская область     57°28′56″N   70°26′04″E
темп.,
°C
ветер,
м/с
пор.,
м/с
влажн.,
%
обл.,
%
осадки,
мм/ч
давл.,
гПа
погр.,
м
11 мая, вт
вт1123:00+11св22570 0.0 102613
02:00+9с22620 0.0 102614
05:00+8с22670 0.0 102635
08:00+15с23480 0.0 1026468
11:00+19с23320 0.0 10261595
14:00+22ссз23251 0.0 10251957
17:00+22ссз24245 0.0 10242145
20:00+16з2241100 0.0 102413
12 мая, ср
ср1223:00+14зсз224190 0.0 102441
02:00+12зсз255034 0.0 102385
05:00+12зсз395897 0.0 1023271
08:00+15ссз585782 0.0 1023782
11:00+17ссз5736100 0.0 10231320
14:00+18ссз683097 0.0 10231804
17:00+18ссз582925 0.0 10241931
20:00+13ссз224883 0.0 102421
13 мая, чт
чт1323:00+13зсз2352100 0.0 102390
02:00+12сз2769100 0.1 1023257
05:00+11з138198 0.4 102398
08:00+12юз257695 0.1 1021189
11:00+16сз386690 0.1 1020488
14:00+19сз51059100 0.1 10201317
17:00+21ссз495130 0.1 10211846
20:00+16с38585 0.0 1023255
14 мая, пт
пт1423:00+11ссв26765 0.0 1025130
02:00+8св22800 0.0 102623
05:00+8в11750 0.0 102810
08:00+14ююз12485 0.0 1027455
11:00+20зюз343724 0.0 10261122
14:00+24зюз4633100 0.0 10232076
17:00+25з3833100 0.0 10212535
20:00+21ю245220 0.1 101968
15 мая, сб
сб1523:00+17з256486 0.1 101979
02:00+16з27665 0.0 1019107
05:00+15з267229 0.0 1020115
08:00+22з354970 0.0 1019384
11:00+26з4736100 0.1 10181466
14:00+28зсз51030100 0.0 10163418
17:00+27сз483298 0.0 10152312
20:00+22сз3949100 0.2 1015249